Miscellaneous Local Product
Issued by NWS North Platte, NE

Home | Current Version | Previous Version | Text Only | Print | Product List | Glossary On
Versions: 1 2 3 4 5 6 7 8 9 10 11 12 13 14 15 16 17 18 19 20 21 22 23 24 25 26 27 28 29 30 31 32 33 34 35 36 37 38 39 40 41 42 43 44 45 46 47 48 49 50
000
AXUS43 KLBF 040410
MISLBF


WESTERN AND NORTH CENTRAL NEBRASKA HOURLY WEATHER ROUNDUP
NATIONAL WEATHER SERVICE NORTH PLATTE NE
1000 PM CST SAT DEC 03 2016

NOTE: "FAIR" INDICATES FEW OR NO CLOUDS BELOW 12,000 FEET WITH NO
SIGNIFICANT WEATHER AND/OR OBSTRUCTIONS TO VISIBILITY.

NOTE: STATIONS NOT REPORTING VARIABLES SUCH AS SKY/WEATHER OR
PRESSURE ARE PROVIDED BY RAWS AND APRS NETWORKS AND ARE NOT UNDER
NATIONAL WEATHER SERVICE QUALITY CONTROL.

...OBSERVATIONS IN AND NEAR THE EASTERN PANHANDLE OF NEBRASKA...

CITY           SKY/WX    TMP DP  RH WIND       PRES   REMARKS
PINE RIDGE     PTCLDY    25  18  74 CALM      29.95S
CHADRON        CLOUDY    27  17  66 W5        29.97S WCI  22
ALLIANCE       PTCLDY    27  15  61 W12       29.98R WCI  17
SIDNEY         PTCLDY    28  15  58 W14       30.02R WCI  17
CRESCENT LAKE    N/A     30  15  54 W7          N/A  WCI  23
$$

...OBSERVATIONS IN NORTHERN NEBRASKA AND FAR SOUTHERN SOUTH DAKOTA...

CITY           SKY/WX    TMP DP  RH WIND       PRES   REMARKS
WINNER         FAIR      30  22  72 SW8       29.92F WCI  22
VALENTINE      CLEAR     25  18  74 W3        29.94S
THEDFORD       CLOUDY    28  17  62 CALM      29.96F
AINSWORTH      CLEAR     28  18  68 W7        29.94F WCI  20
O`NEILL        PTCLDY    33  32  95 S10       29.97F WCI  25
ORD            CLOUDY    33  29  85 S8        30.01F WCI  26
BROKEN BOW     CLOUDY    34  32  92 S9        29.99F WCI  27
VALENTINE NWR    N/A     29  15  56 W3          N/A
BUTTE            N/A     33  29  86 SW6         N/A  WCI  27
HALSEY           N/A     31  27  85 S5          N/A  WCI  26
CHAMBERS         N/A     33  30  90 W5          N/A  WCI  28
EWING            N/A     33  30  90 S10G17      N/A  WCI  25
$$

...OBSERVATIONS IN SOUTHWEST NEBRASKA AND FAR NORTHEAST COLORADO...

CITY           SKY/WX    TMP DP  RH WIND       PRES   REMARKS
HOLYOKE        FAIR      34  19  55 NW8       30.01S WCI  27
IMPERIAL       PTCLDY    29  15  56 NW9       30.01S WCI  20
OGALLALA       MOCLDY    32  17  54 SW3       30.00S
NORTH PLATTE   PTCLDY    31  28  89 S5        30.00S WCI  26
MCCOOK         CLOUDY    34  32  92 SW6       30.03R WCI  29
LEXINGTON      CLOUDY    33  31  94 SW8       30.02S WCI  26
STAPLETON        N/A     27  25  93 CALM        N/A
GOTHENBURG       N/A     33  30  90 SW3         N/A
CALLAWAY         N/A     32  31  97 SW9         N/A  WCI  24
$$

...OBSERVATIONS IN CENTRAL LINCOLN COUNTY AREA...

CITY           SKY/WX    TMP DP  RH WIND       PRES   REMARKS
N.P. AIRPORT   PTCLDY    31  28  89 S5        30.00S WCI  26
N.P. DOWNTOWN    N/A     30  28  92 CALM        N/A
N.P. SOUTHEAST   N/A     30  28  90 CALM        N/A
N.P. HILLCREST   N/A     30  28  92 S3          N/A
$$

...SOME OBSERVATIONS FROM AROUND THE REGION...

CITY           SKY/WX    TMP DP  RH WIND       PRES   REMARKS
LARAMIE        CLOUDY    19   8  62 SW13      29.99F WCI   6
CHEYENNE       CLOUDY    27   9  46 W15       30.01S WCI  15
DENVER         PTCLDY    27  14  58 W7        30.05R WCI  19
AKRON          CLEAR     23  12  62 W10       30.02R WCI  12
SCOTTSBLUFF    MOCLDY    26  13  57 NW7       30.01R WCI  18
RAPID CITY     CLOUDY    32  22  66 W12       29.91S WCI  23
BISMARCK       CLOUDY    26  24  92 SE5       29.80F WCI  20
PIERRE         CLEAR     28  21  75 SW7       29.88F WCI  21
SIOUX FALLS    CLOUDY    34  33  96 S16       30.02F FOG     WCI  24
OMAHA          LGT SNOW  33  29  85 CALM      30.09F VSB 1
GRAND ISLAND   CLOUDY    32  32 100 SW10      30.05S WCI  24
KANSAS CITY    LGT RAIN  42  34  73 SE6       30.10F
WICHITA        LGT RAIN  41  41 100 CALM      30.07S FOG
OKLAHOMA CITY  CLOUDY    44  43  96 E7        30.03F FOG
DALLAS         CLOUDY    48  45  89 N9        29.99F
AMARILLO       CLOUDY    38  38 100 S8        30.01R WCI  32
DODGE CITY     LGT RAIN  38  38 100 CALM      30.04S FOG
HAYS           LGT RAIN  33  32  96 CALM      30.06S FOG
GOODLAND       CLEAR     26  24  92 W9        30.02R WCI  17
$$




USA.gov is the U.S. government's official web portal to all federal, state and local government web resources and services.